#timestamp,LO_Frequency,Hit,StdDev 
1664082015.5,286047000.8,N
1664082035.3,286047001.4,N
1664082055.1,286047004.0,Y
1664082075.9,286047001.9,P
1664082095.7,286047000.4,N
1664082115.6,286047000.5,N
1664082135.4,286047001.0,N
1664082155.2,286047000.7,N
1664082175.1,286047001.0,N
1664082176.0,286047001.0,N
1664082195.8,286047000.8,N
1664082215.7,286047002.8,Y
1664082235.5,286047000.8,P
1664082255.3,286047001.2,P
1664082275.2,286046998.8,P
1664082295.0,286046996.9,Y
1664082295.9,286046996.9,P
1664082315.8,286046999.2,N
1664082335.6,286046996.9,N
1664082355.4,286046996.5,N
1664082375.3,286046998.4,N
1664082395.1,286046999.0,N
1664082415.8,286047001.2,N
1664082435.7,286047000.8,N
1664082455.5,286047000.4,N
1664082475.4,286047002.8,N
1664082495.2,286046999.8,N
1664082515.0,286047002.4,N
1664082515.9,286047002.4,N
1664082535.8,286047001.4,N
1664082555.6,286047001.8,N
1664082575.4,286047001.9,N
1664082595.3,286047001.3,N
1664082615.1,286047001.6,N
1664082635.9,286047001.5,N
1664082655.7,286047004.3,N
1664082675.5,286047002.0,N
1664082695.4,286047001.6,N
1664082715.2,286047002.7,N
1664082735.0,286047002.2,N
1664082736.0,286047002.2,N
1664082755.8,286047001.9,N
1664082775.6,286047001.4,N
1664082795.5,286047002.0,N
1664082815.3,286047001.9,N
1664082835.1,286047004.0,N
1664082855.9,286047005.8,Y
1664082875.7,286047003.7,P
1664082895.6,286047003.7,N
1664082915.4,286047004.0,P
1664082935.2,286047001.3,N
1664082955.1,286047003.2,N
1664082956.0,286047003.2,N
1664082975.8,286047005.5,Y
1664082995.6,286047002.5,P
1664083015.5,286047001.9,P
1664083035.3,286047004.1,P
1664083055.2,286047004.4,Y
1664083075.9,286047002.5,P
1664083095.7,286047002.7,P
1664083115.6,286047000.6,P
1664083135.4,286047000.2,N
1664083155.3,286047000.4,N
1664083175.1,286047000.4,N
1664083176.0,286047000.4,N
1664083195.8,286047000.5,N
1664083215.7,286046998.1,N
1664083235.5,286046998.2,N
1664083255.3,286047001.1,N
1664083275.2,286046998.1,N
1664083295.0,286047001.1,N
1664083295.9,286047001.1,N
1664083315.8,286046998.4,N
1664083335.6,286047001.0,N
1664083355.4,286047000.9,N
1664083375.3,286047000.6,N
1664083395.1,286046999.9,N
1664083415.8,286047003.9,N
1664083435.7,286047001.6,N
1664083455.5,286047002.2,N
1664083475.4,286047002.1,N
1664083495.2,286047001.6,N
1664083515.0,286047002.5,N
1664083515.9,286047002.5,N
1664083535.8,286047001.5,N
1664083555.6,286047002.3,N
1664083575.4,286047002.8,N
1664083595.3,286047004.0,N
1664083615.1,286047001.6,N
1664083635.9,286046999.7,N
1664083655.7,286047000.4,N
1664083675.5,286047002.8,N
1664083695.4,286047001.5,N
1664083715.2,286047002.2,N
1664083735.0,286047004.4,N
1664083735.9,286047004.4,N
1664083755.8,286047001.4,N
1664083775.6,286046999.7,N
1664083795.5,286046999.8,N
1664083815.3,286047002.6,N
1664083835.1,286047002.4,N
1664083855.9,286047001.4,N
1664083875.7,286047001.4,N
1664083895.5,286047003.8,N
1664083915.4,286047003.8,N
1664083935.2,286047003.8,N
1664083955.1,286047004.2,Y
1664083956.0,286047004.2,P
1664083975.8,286047000.2,N
1664083995.6,286047000.2,N
1664084015.5,286046998.5,N
1664084035.3,286047000.5,N
1664084055.2,286047000.0,N
1664084075.9,286046999.8,N
1664084095.7,286047000.1,N
1664084115.6,286047002.3,N
1664084135.4,286047002.6,N
1664084155.2,286047002.7,N
1664084175.1,286047002.3,N
1664084176.0,286047002.3,N
1664084195.8,286047001.8,N
1664084215.7,286047002.3,N
1664084235.5,286047002.3,N
1664084255.3,286047002.7,N
1664084275.2,286047002.7,N
1664084295.0,286047000.1,N
1664084295.9,286047000.1,N
1664084315.7,286047002.2,N
1664084335.6,286047002.5,N
1664084355.4,286047004.2,Y
1664084375.3,286047000.1,P
1664084395.1,286046999.8,N
1664084396.0,286046999.8,N
1664084415.8,286047000.1,N
1664084435.7,286047002.8,Y
1664084455.5,286046999.7,P
1664084475.4,286047001.9,P
1664084495.2,286047001.5,N
1664084515.0,286047001.9,N
1664084515.9,286047001.9,N
1664084535.8,286047002.0,N
1664084555.6,286046999.9,N
1664084575.4,286047000.3,N
1664084595.3,286047000.5,N
1664084615.1,286046998.2,N
1664084635.9,286046999.6,N
1664084655.7,286046998.4,N
1664084675.5,286046998.3,N
1664084695.4,286046998.2,N
1664084715.2,286047001.2,N
1664084735.0,286047001.0,N
1664084736.0,286047001.0,N
1664084755.8,286047000.8,N
1664084775.6,286047002.7,N
1664084795.5,286047000.5,N
1664084815.3,286047002.7,N
1664084835.1,286047001.7,N
1664084855.9,286047002.0,N
1664084875.7,286047001.7,N
1664084895.6,286047000.0,N
1664084915.4,286047000.7,N
1664084935.2,286047001.1,N
1664084955.1,286046999.8,N
1664084956.0,286046999.8,N
1664084975.8,286046999.9,N
1664084995.7,286047000.0,N
1664085015.5,286047002.8,N
1664085035.3,286047002.7,N
1664085055.2,286047001.6,N
1664085075.9,286047004.3,Y
1664085095.7,286047002.2,P
1664085115.6,286047001.1,N
1664085135.4,286046998.8,N
1664085155.3,286046996.6,N
1664085175.1,286046999.2,N
1664085176.0,286046999.2,N
1664085195.8,286047000.8,N
1664085215.7,286046996.5,N
1664085235.5,286046995.4,N
1664085255.4,286046996.9,N
1664085275.2,286046999.0,N
1664085295.0,286047000.6,N
1664085295.9,286047000.6,N
1664085315.8,286047000.9,N
1664085335.6,286047000.9,N
1664085355.4,286047000.6,N
1664085375.3,286047002.8,N
1664085395.1,286047000.1,N
1664085415.9,286046998.2,N
1664085435.7,286047000.4,N
1664085455.5,286046999.8,N
1664085475.4,286046999.3,N
1664085495.2,286046999.2,N
1664085515.0,286046998.9,N
1664085515.9,286046998.9,N
1664085535.8,286047001.1,N
1664085555.6,286046999.8,N
1664085575.5,286046999.7,N
1664085595.3,286047002.0,N
